Regional Weather Roundup
Issued by NWS

Home | Current Version | Previous Version | Text Only | Print | Product List | Glossary On
Versions: 1 2 3 4 5 6 7 8 9 10 11 12 13 14 15 16 17 18 19 20 21 22 23 24 25 26 27 28 29 30 31 32 33 34 35 36 37 38 39 40 41 42 43 44 45 46 47 48 49 50
000
ASUS43 KOAX 100310
RWRNE

WEATHER ROUNDUP FOR NEBRASKA
NATIONAL WEATHER SERVICE OMAHA NE
1000 PM CDT WED JUL 09 2014

NOTES: SATELLITE DATA IS BEING USED TO AUGMENT CLOUD COVER ABOVE
       12000 FEET.
       "FAIR" INDICATES FEW OR NO CLOUDS BELOW 12,000 FEET WITH NO
       SIGNIFICANT WEATHER AND/OR OBSTRUCTIONS TO VISIBILITY.

  * THESE STATIONS DO NOT REPORT WEATHER SUCH AS RAIN...SNOW OR FOG.

NEZ001>004-019>022-054>056-100400-
NEBRASKA PANHANDLE

CITY           SKY/WX    TMP DP  RH WIND       PRES   REMARKS
SCOTTSBLUFF    CLEAR     77  64  64 NE16      29.92R
ALLIANCE       CLEAR     71  61  70 NE10G20   29.95R
CHADRON        CLEAR     71  61  70 E9        29.94R
KIMBALL        PTCLDY    70  58  65 S5        29.98R
SIDNEY         CLEAR     71  58  63 SE8       29.96R
$$

NEZ057>060-069>072-079>082-100400-
SOUTHWEST NEBRASKA

CITY           SKY/WX    TMP DP  RH WIND       PRES   REMARKS
NORTH PLATTE   MOCLDY    73  63  70 SE17      29.94R
IMPERIAL       MOCLDY    79  62  56 SE16      29.91S
LEXINGTON      MOCLDY    68  63  83 E23G32    30.00R
MCCOOK         CLOUDY    81  64  56 S20G25    29.90F
OGALLALA       CLEAR     77  61  57 S9        29.91R
$$

NEZ005>010-023>029-035>040-094-100400-
NORTH CENTRAL NEBRASKA

CITY           SKY/WX    TMP DP  RH WIND       PRES   REMARKS
VALENTINE      CLEAR     64  59  83 E7        29.99R
AINSWORTH      MOCLDY    62  59  90 E7        30.00R
BROKEN BOW     PTCLDY    67  60  78 E26G39    29.92F
O`NEILL        MOCLDY    63  58  86 S5        30.00R
ORD            CLOUDY    64  62  93 S7        29.97S
THEDFORD       CLOUDY    66  60  79 E15       29.99R
$$

NEZ041-046>049-061>064-073>077-083>087-100400-
SOUTH CENTRAL NEBRASKA

CITY           SKY/WX    TMP DP  RH WIND       PRES   REMARKS
GRAND ISLAND   TSTM      65  62  90 SE29G36   29.98F FOG
AURORA         RAIN      65  64  96 S12       30.09R
HASTINGS       LGT RAIN  64  61  90 E17G29    30.08  FOG
HEBRON         DRIZZLE   72  63  72 E7        30.05R
HOLDREGE       CLOUDY    67  61  80 NE17      30.06R
KEARNEY *      CLOUDY    64  61  88 E20G29    30.03R
YORK           LGT RAIN  64  64 100 SW10      30.08R
$$

NEZ011>018-030>034-042>045-100400-
NORTHEAST NEBRASKA

CITY           SKY/WX    TMP DP  RH WIND       PRES   REMARKS
NORFOLK        CLOUDY    66  59  78 SE6       29.99S
ALBION         CLOUDY    63  61  94 NE6       29.99F
BLAIR          CLOUDY    69  63  80 S3        30.02R
FREMONT        CLOUDY    70  63  77 SE3       30.01S
TEKAMAH        MOCLDY    68  64  87 S6        30.00R
WAYNE          MOCLDY    64  60  88 S3        30.01R
$$

NEZ050>053-065>068-078-088>093-100400-
SOUTHEAST NEBRASKA

CITY           SKY/WX    TMP DP  RH WIND       PRES   REMARKS
LINCOLN        LGT RAIN  70  65  84 NE5       30.04R
OMAHA EPPLEY   CLOUDY    75  60  59 SE6       30.02R
BEATRICE       CLOUDY    65  62  89 S8        30.01S
FALLS CITY     LGT RAIN  73  65  75 S7        30.04R
NEBRASKA CITY  CLOUDY    69  67  93 S3        30.03R
PLATTSMOUTH    CLOUDY    70  59  69 SE5       30.03R
$$

NEZ044-045-051>053-067-100400-
OMAHA AREA

CITY           SKY/WX    TMP DP  RH WIND       PRES   REMARKS
OMAHA EPPLEY   CLOUDY    75  60  59 SE6       30.02R
BLAIR          CLOUDY    69  63  80 S3        30.02R
FREMONT        CLOUDY    70  63  77 SE3       30.01S
MILLARD        CLOUDY    72  64  76 SE3       30.01R
OFFUTT AFB     CLOUDY    69  67  95 E3        30.02R
PLATTSMOUTH    CLOUDY    70  59  69 SE5       30.03R
WAHOO          FAIR      69  65  88 S5        30.01R
$$


USA.gov is the U.S. government's official web portal to all federal, state and local government web resources and services.